Location: Barnston
(51.8500°N, 0.4000°E)
Time: 04:45:22
(UTC+00:00)

Daily predictions for brighter satellites

Satellite Brightness Start Highest point End
(mag) Time Altitude Azimuth Time Altitude Azimuth Time Altitude Azimuth
ATLAS 3B R/B 4.3 00:03:29 10° WNW 00:10:07 33° N 00:17:00 10° ENE
CZ-4C R/B 4.2 00:08:34 10° NW 00:11:30 29° NW 00:11:30 29° NW
CENTAUR R/B 4.5 00:09:40 10° NW 00:13:27 27° WNW 00:13:27 27° WNW
Cosmos 2082 Rocket 4.3 01:02:42 19° E 01:02:42 19° E 01:05:18 10° NE
IDEFIX/ARIANE 42P 4.4 01:09:00 10° NNE 01:12:00 26° ENE 01:12:00 26° ENE
Cosmos 1833 Rocket 4.1 01:18:16 35° NE 01:18:16 35° NE 01:21:30 10° NE
CZ-2C R/B 4.3 01:27:27 26° ENE 01:28:13 27° ENE 01:32:34 10° N
SL-16 R/B 3.1 01:28:59 52° ENE 01:28:59 52° ENE 01:34:49 10° N
Cosmos 1980 Rocket 4.0 01:28:49 10° NNW 01:30:49 23° NNW 01:30:49 23° NNW
SJ 16-02 3.9 01:38:10 17° N 01:38:10 17° N 01:39:20 10° N
SL-16 R/B 3.7 01:34:52 10° NNW 01:40:03 34° NE 01:45:12 10° ESE
Resurs 1-4 Rocket 3.2 01:39:31 10° NNE 01:43:07 41° NE 01:43:07 41° NE
CZ-2D R/B 3.1 01:40:22 10° NNE 01:44:21 44° NE 01:44:21 44° NE
USA 281 3.8 01:39:49 10° NE 01:46:05 46° ESE 01:46:05 46° ESE
Cosmos 2278 4.5 01:42:58 10° NNW 01:47:56 49° NNE 01:47:56 49° NNE
USA 215 4.1 01:44:38 10° ESE 01:48:21 37° ESE 01:48:21 37° ESE
MSX 4.3 01:51:53 10° NNE 01:56:52 55° ENE 01:56:52 55° ENE
ATLAS 3B R/B 3.9 01:55:26 10° NW 02:02:41 45° NNE 02:10:09 10° E
Cosmos 2322 Rocket 3.7 01:59:05 10° NNW 02:04:15 35° NE 02:09:24 10° ESE
NOSS 3-4 (A) 3.5 02:13:22 65° N 02:13:22 65° N 02:19:03 10° NE
NOSS 3-4 (C) 3.5 02:13:29 65° N 02:13:29 65° N 02:19:10 10° NE
COSMOS 2406 3.5 02:14:46 62° E 02:14:46 62° E 02:19:58 10° NE
Cosmos 1428 Rocket 4.4 02:16:55 79° NE 02:16:55 79° NE 02:22:49 10° NNE
ASTEX 1 4.2 02:12:02 10° NNE 02:16:10 50° NE 02:16:10 50° NE
Lacrosse 4 Rocket 3.1 02:23:45 31° ENE 02:23:45 31° ENE 02:26:22 10° NE
NOSS 2-3 (D) 4.5 02:22:40 46° NNW 02:24:33 77° NE 02:32:01 10° SE
Cosmos 1680 Rocket 4.2 02:19:38 10° NNW 02:24:52 54° ENE 02:27:56 24° SE
ADEOS II 2.3 02:20:36 10° NNE 02:25:14 67° NE 02:25:14 67° NE
Cosmos 2195 Rocket 4.3 02:26:48 86° NNW 02:26:48 86° NNW 02:32:53 10° N
Cosmos 2360 Rocket 3.4 02:28:15 10° NNW 02:33:36 40° NE 02:38:56 10° ESE
Cosmos 1553 Rocket 4.1 02:28:41 10° N 02:34:49 71° ENE 02:37:04 41° SSE
ATLAS 5 CENTAUR R/B 2.8 02:36:43 35° NNE 02:36:43 35° NNE 02:39:21 10° NE
Cosmos-2242 4.0 02:37:56 43° NE 02:37:56 43° NE 02:40:59 10° NNE
Cosmos 2333 Rocket 3.7 02:31:34 10° NNW 02:36:50 36° NE 02:42:06 10° ESE
Thor Agena Rocket 4.2 02:32:37 10° NNE 02:37:44 50° E 02:38:37 45° SE
Nadezhda 4 Rocket 4.4 02:40:18 49° WNW 02:40:18 49° WNW 02:45:58 10° N
Cosmos 2026 Rocket 3.8 02:42:02 78° SW 02:42:23 82° W 02:48:33 10° N
Cosmos 304 Rocket 4.1 02:43:48 64° E 02:43:48 64° E 02:48:14 10° NNE
Cosmos 2082 Rocket 2.1 02:44:33 82° WNW 02:44:35 82° WNW 02:50:21 10° NNE
NPP 4.2 02:42:04 10° N 02:46:35 46° NW 02:46:35 46° NW
Cosmos 1812 Rocket 4.0 02:48:13 61° NE 02:48:13 61° NE 02:52:10 10° NNE
Cosmos 1627 Rocket 4.3 02:49:15 70° WSW 02:49:43 74° WNW 02:55:55 10° N
CZ-4 R/B 3.9 02:45:18 10° NNE 02:49:51 71° E 02:49:51 71° E
ATLAS CENTAUR R/B 3.8 02:48:30 39° S 02:50:32 50° SE 03:01:24 10° ENE
Cosmos 1898 Rocket 3.9 02:51:03 51° SE 02:51:54 57° ESE 02:57:08 10° NNE
CZ-2C R/B 4.0 02:48:17 10° NNE 02:52:34 30° E 02:55:28 17° SE
IDEFIX/ARIANE 42P 3.2 02:48:23 10° N 02:52:46 44° NW 02:52:46 44° NW
NOSS 2-2 (E) 3.8 02:55:40 88° SSE 02:55:40 88° SSE 03:01:47 10° SE
NOSS 2-3 (E) 4.4 02:53:22 40° WNW 02:55:43 74° SW 03:03:24 10° SE
Cosmos 44 3.8 02:58:37 49° SSE 02:59:16 53° ESE 03:04:27 10° NE
Cosmos 1833 Rocket 3.7 02:59:58 30° NW 03:00:17 31° NW 03:05:15 10° NNE
Cosmos 990 Rocket 3.9 03:00:59 73° WNW 03:01:04 74° WNW 03:06:22 10° NNE
Cosmos 1937 Rocket 4.1 03:02:00 40° SSE 03:03:26 52° ESE 03:08:28 10° NNE
Aureole 1 Rocket 4.1 03:03:03 54° WSW 03:04:10 62° WNW 03:09:57 10° NNE
NOSS 3-1 (C) 4.1 02:57:23 10° NW 03:04:20 73° NE 03:12:53 10° SE
Cosmos 1092 Rocket 4.1 03:04:15 54° W 03:04:55 57° WNW 03:11:12 10° N
Meteor 2-17 Rocket 4.3 03:04:26 60° SW 03:05:24 71° WNW 03:11:30 10° N
ALOS 2.3 03:01:03 10° NNE 03:05:44 75° ESE 03:06:14 67° SSE
ATLAS CENTAUR R/B 3.7 03:06:32 12° NNW 03:07:13 12° N 03:08:48 10° NNE
CZ-2C R/B 2.8 03:08:57 52° WNW 03:08:57 52° WNW 03:13:22 10° NNW
Cosmos 1417 Rocket 4.4 03:02:40 10° N 03:08:58 84° E 03:15:08 10° S
SL-16 R/B 3.4 03:14:05 32° WNW 03:14:05 32° WNW 03:18:18 10° NNW
NOSS 2-2 (D) 3.8 03:13:18 50° NW 03:14:34 85° SW 03:20:40 10° SE
NOSS 2-2 (C) 3.7 03:15:56 48° NW 03:17:18 83° SW 03:23:23 10° SE
Meteor 1-25 Rocket 4.1 03:12:59 10° NNW 03:18:39 68° W 03:20:47 39° SSW
CZ-2C R/B 3.3 03:14:39 10° NNE 03:20:32 81° ESE 03:23:22 32° S
IRS-1D 3.9 03:15:34 10° NNE 03:20:53 63° ESE 03:24:00 25° S
RESURS DK-1 2.8 03:21:54 48° NNW 03:21:54 48° NNW 03:25:31 10° NNE
BlueWalker 3 2.0 03:21:58 71° NNE 03:21:58 71° NNE 03:25:41 10° E
Meteor 1-20 Rocket 4.3 03:17:30 10° NNW 03:23:09 54° W 03:24:07 49° SW
BREEZE-M DEB 4.5 03:24:31 16° ESE 03:24:31 16° ESE 03:25:16 10° E
Cosmos 2219 Rocket 3.2 03:18:24 10° NNW 03:23:51 46° NE 03:29:16 10° ESE
Resurs 1-4 Rocket 3.2 03:19:52 10° N 03:24:10 27° WNW 03:24:10 27° WNW
SL-16 R/B 2.2 03:18:54 10° NW 03:24:28 58° WSW 03:30:01 10° S
CZ-2D R/B 3.2 03:20:52 10° N 03:25:28 29° WNW 03:25:38 29° WNW
Cosmos 1933 3.3 03:25:46 61° SSE 03:26:20 74° E 03:30:19 10° NNE
FENGYUN 3A 3.7 03:25:03 10° N 03:30:18 57° WNW 03:31:30 46° WSW
USA 281 3.5 03:24:24 10° NNE 03:30:42 50° NW 03:32:57 36° W
Cosmos 372 Rocket 3.9 03:29:24 41° SSW 03:31:12 83° ESE 03:36:20 10° NNE
Cosmos 1461 3.4 03:31:30 48° WNW 03:32:02 51° NW 03:36:27 10° NE
Cosmos 371 Rocket 3.8 03:33:36 40° WNW 03:34:02 40° NW 03:38:38 10° NNE
USA 215 3.6 03:28:43 10° SSE 03:34:44 38° SW 03:35:44 36° WSW
ATLAS 2AS CENTAUR R/B 3.0 03:33:16 27° SSW 03:37:39 72° SE 03:44:51 10° NE
S3M 3.9 03:31:28 10° NNW 03:37:53 75° W 03:44:12 10° S
Cosmos 1812 3.4 03:39:25 37° NW 03:39:25 37° NW 03:42:12 10° N
SL-24 DEB 4.2 03:38:05 45° SW 03:39:14 59° W 03:43:56 10° N
YAOGAN 6 3.2 03:38:14 10° NNE 03:41:33 50° E 03:43:05 27° SSE
Iridium 4 Rocket 3.9 03:38:52 10° NNW 03:43:54 39° W 03:44:29 38° W
Cosmos 2237 4.5 03:38:47 10° NW 03:44:12 44° WSW 03:49:35 10° S
METEOR-M 4.1 03:39:05 10° NNE 03:44:28 84° ESE 03:48:31 18° SSW
Cosmos 494 Rocket 4.2 03:39:26 10° NNW 03:44:38 71° ENE 03:49:44 10° SSE
Cosmos 2315 Rocket 4.1 03:38:41 10° N 03:45:06 86° E 03:51:29 10° S
Cosmos 1766 Rocket 3.4 03:41:21 10° NNW 03:45:42 65° W 03:48:24 22° S
Cosmos 2322 Rocket 2.2 03:43:03 10° NW 03:48:36 56° WSW 03:54:06 10° S
Cosmos 2112 Rocket 4.3 03:45:17 10° NW 03:50:20 43° WSW 03:55:22 10° S
Okean 3 Rocket 3.5 03:46:17 10° N 03:50:48 88° W 03:55:15 10° S
SL-4 R/B 2.6 03:51:57 31° S 03:51:57 31° S 03:54:16 10° SE
Cosmos 1743 4.2 03:48:44 10° N 03:52:16 37° ENE 03:55:47 10° SE
ATLAS 3B R/B 2.9 03:46:25 10° NW 03:54:09 80° SW 04:01:56 10° SE
Envisat 3.1 03:49:20 10° NNE 03:54:27 79° ESE 03:59:24 11° SSW
Cosmos 1048 Rocket 4.2 03:51:34 10° NNW 03:56:55 76° ENE 04:02:09 10° SSE
COSMOS 2406 4.2 03:56:49 25° W 03:58:58 32° NW 04:04:09 10° NNE
Cosmos 883 Rocket 4.4 03:53:36 10° NNW 03:59:53 71° W 04:06:11 10° S
NOSS 7 (E) 4.2 03:58:55 28° NW 04:00:27 84° NE 04:04:02 10° SE
Lacrosse 4 Rocket 2.4 03:59:50 29° WNW 04:00:52 33° NW 04:04:49 10° NNE
Cosmos 405 Rocket 4.2 04:02:46 21° NW 04:02:46 21° NW 04:05:08 10° NNW
Meteor 1-14 Rocket 4.4 03:57:31 10° NNW 04:03:32 82° ENE 04:09:32 10° SSE
Cosmos 1782 3.2 04:04:01 37° W 04:04:37 40° WNW 04:08:19 10° N
ADEOS II 3.4 04:01:07 10° N 04:04:59 21° NW 04:06:07 20° WNW
Cosmos 489 Rocket 4.5 04:00:43 16° SSW 04:05:57 85° WNW 04:12:22 10° NNE
Cosmos 1680 Rocket 4.3 04:02:11 10° NW 04:06:41 29° W 04:07:46 26° WSW
Cosmos 292 Rocket 4.1 04:02:33 10° S 04:07:13 64° ESE 04:11:59 10° NNE
Cosmos 1484 Rocket 3.5 04:04:22 10° NNE 04:07:55 48° E 04:11:26 10° S
Meteor 1-26 Rocket 4.2 04:02:13 10° SSW 04:08:10 79° WNW 04:13:59 10° N
Cosmos 1842 Rocket 3.7 04:05:03 10° S 04:09:30 81° E 04:14:01 10° NNE
COBE Rocket 3.9 04:06:59 10° NNE 04:11:44 80° ESE 04:16:35 10° S
GP-B 3.4 04:07:57 10° SSE 04:12:20 70° E 04:16:46 10° N
Lacrosse 5 rocket 3.9 04:10:59 10° SSE 04:13:22 15° SE 04:15:41 10° E
Cosmos 2266 Rocket 4.1 04:07:39 12° SSW 04:13:22 60° WNW 04:19:43 10° N
CBERS-1 4.1 04:08:16 10° NNE 04:13:25 83° ESE 04:18:32 10° SSW
NOSS 3-1 (A) 4.0 04:06:29 10° NW 04:13:36 90° WSW 04:22:17 10° SE
Cosmos 2221 2.7 04:13:15 23° SW 04:15:41 50° WNW 04:19:55 10° N
Thor Agena Rocket 4.4 04:12:14 10° N 04:16:49 32° WNW 04:19:10 22° WSW
Helios 1A 3.0 04:13:32 10° SSE 04:17:39 83° ENE 04:21:47 10° NNW
Cosmos 2360 Rocket 2.4 04:12:18 10° NW 04:17:44 47° WSW 04:23:07 10° S
Cosmos 1867 4.1 04:13:15 10° NW 04:18:41 61° NE 04:24:06 10° ESE
Cosmos 2333 4.2 04:13:53 10° NW 04:19:34 64° WSW 04:25:15 10° SSE
ATLAS 5 CENTAUR R/B 3.2 04:17:52 15° WNW 04:20:08 22° NNW 04:23:43 10° NE
Cosmos 2333 Rocket 2.3 04:15:49 10° NW 04:21:24 56° WSW 04:26:58 10° S
Cosmos 2237 Rocket 3.9 04:18:39 10° NNW 04:23:51 34° NE 04:29:00 10° ESE
Cosmos 2322 3.8 04:20:03 10° NNW 04:25:48 81° ENE 04:31:30 10° SSE
COSMOS 2428 3.1 04:20:40 10° NNW 04:26:22 69° NE 04:32:03 10° SE
ARIANE 5 R/B 3.4 04:23:52 10° NNE 04:28:49 51° E 04:33:42 10° S
Cosmos 2082 Rocket 3.6 04:26:24 15° WNW 04:29:34 23° NW 04:34:06 10° NNE
Cosmos 1743 Rocket 3.7 04:25:18 10° N 04:29:39 76° E 04:33:58 10° SSE
CZ-2C R/B 2.8 04:26:16 10° N 04:30:55 44° WNW 04:34:47 13° SW
Cosmos 1515 3.6 04:27:46 12° SSW 04:31:02 55° WNW 04:34:39 10° N
Cosmos 1900 4.3 04:26:58 10° NW 04:32:04 81° SW 04:37:12 10° SSE
Cosmos 2285 Rocket 4.1 04:26:10 10° NNW 04:32:15 52° WSW 04:38:19 10° S
Cosmos 1805 Rocket 3.7 04:29:14 10° N 04:33:36 79° E 04:37:56 10° SSE
H-2A R/B 3.6 04:29:27 10° NNE 04:34:37 41° E 04:39:44 10° SSE
ERS-2 3.5 04:31:58 10° NNE 04:34:55 34° E 04:37:50 10° SSE
PAYLOAD A 4.2 04:30:48 10° N 04:35:20 45° WNW 04:39:58 10° SW
Cosmos 1271 Rocket 2.6 04:32:32 10° NNW 04:36:21 89° ENE 04:40:05 10° SSE
Cosmos 1655 Rocket 4.2 04:31:53 10° SSW 04:38:06 52° WNW 04:44:22 10° N
Cosmos 44 4.1 04:37:01 17° W 04:40:41 41° NW 04:45:48 10° NE
ALOS 3.8 04:39:17 10° NNW 04:42:30 19° WNW 04:44:37 14° W
Nadezhda 1 Rocket 4.5 04:37:37 10° N 04:43:59 67° ENE 04:50:13 10° SSE
Cosmos 1937 Rocket 4.4 04:42:11 15° WSW 04:45:38 31° NW 04:50:16 10° N
ATLAS CENTAUR R/B 3.7 04:44:51 10° NNW 04:46:49 14° NNE 04:48:46 10° NE
Cosmos 1939 Rocket 3.9 04:44:40 10° NNE 04:48:24 47° E 04:52:06 10° S
SKYMED 2 4.0 04:44:57 10° SSE 04:49:15 67° ENE 04:53:36 10° N
Meteor 2-6 Rocket 4.1 04:48:48 10° SSW 04:54:11 66° WNW 04:59:35 10° N
NOSS 3-1 (C) 4.5 04:48:20 10° NW 04:55:10 41° WSW 05:03:11 10° S
Cosmos 1408 Rocket 4.1 04:51:25 10° NNW 04:55:26 36° W 04:59:28 10° SSW
Cosmos 1833 4.2 04:51:16 10° SW 04:56:54 68° NW 05:02:33 10° NNE
ATLAS CENTAUR R/B 4.3 04:52:23 12° WSW 04:59:23 76° NNW 05:14:22 10° ENE
BlueWalker 3 1.9 04:56:36 10° WNW 05:00:26 88° S 05:04:18 10° ESE
SL-27 R/B 2.0 05:00:01 10° SSW 05:03:07 72° WNW 05:06:16 10° NNE
NOSS 3 (A) 3.6 05:04:33 15° WSW 05:05:37 39° NW 05:07:14 10° NNE
Helios 1B rocket 4.4 05:02:30 10° NNE 05:06:11 33° E 05:09:49 10° SSE
SL-16 R/B 3.9 05:06:33 10° W 05:07:21 10° W 05:08:09 10° WSW
Cosmos 2219 Rocket 2.6 05:02:32 10° NW 05:07:45 40° WSW 05:12:58 10° S
SL-08 R/B 3.3 05:05:00 10° SSE 05:09:44 81° WSW 05:14:36 10° NNW
Cosmos 1536 2.9 05:09:30 10° NNW 05:13:18 51° W 05:17:03 10° S
YAOGAN 6 4.2 05:12:02 10° NNW 05:14:02 15° WNW 05:16:02 10° W
Sich 1 3.3 05:10:28 10° NNW 05:14:35 46° W 05:18:42 10° SSW
ARGOS 4.5 05:14:36 10° NNE 05:19:47 46° E 05:24:58 10° S
